This demonstration page uses our WeatherBlox Daily Observations layout. Learn more.

Left ArrowRight Arrow

Hourly Observations for July 20, 2015

Temp ( °F °C ) Dew Point ( °F °C ) Humidity (%) Winds ( mph kmh ) Pressure ( in mb ) Visibility ( mi km ) Precip ( " mm )
12:15 am 00:15 Clear 81 27 79 26 94 94 Calm 29.83 1010 10 16.0934 0 0
12:35 am 00:35 Clear 81 27 79 26 94 94 Calm 29.83 1010 10 16.0934 0 0
12:55 am 00:55 Clear 81 27 77 25 89 89 Calm 29.83 1010 10 16.0934 0 0
1:15 am 01:15 Clear 79 26 77 25 94 94 Calm 29.83 1010 10 16.0934 0 0
1:35 am 01:35 Clear 79 26 77 25 94 94 Calm 29.83 1010 10 16.0934 0 0
1:55 am 01:55 Clear 79 26 77 25 94 94 W 5 7 29.83 1010 10 16.0934 0 0
2:15 am 02:15 Partly Cloudy 79 26 77 25 94 94 WSW 5 7 29.83 1010 10 16.0934 0 0
2:35 am 02:35 Mostly Cloudy 79 26 77 25 94 94 W 6 9 29.83 1010 10 16.0934 0 0
2:55 am 02:55 Cloudy 79 26 77 25 94 94 SW 5 7 29.8 1009 10 16.0934 0 0
3:15 am 03:15 Cloudy 79 26 77 25 94 94 Calm 29.8 1009 10 16.0934 0 0
3:35 am 03:35 Mostly Cloudy 79 26 77 25 94 94 Calm 29.8 1009 10 16.0934 0 0
3:55 am 03:55 Partly Cloudy 79 26 77 25 94 94 WSW 3 6 29.8 1009 10 16.0934 0 0
4:15 am 04:15 Clear 77 25 77 25 100 100 W 6 9 29.8 1009 10 16.0934 0 0
4:35 am 04:35 Clear 77 25 77 25 100 100 WNW 12 19 29.8 1009 10 16.0934 0 0
4:55 am 04:55 Clear 79 26 75 24 89 89 WNW 7 11 29.8 1009 10 16.0934 0 0
5:15 am 05:15 Clear 77 25 73 23 89 89 W 8 13 29.8 1009 10 16.0934 0 0
5:35 am 05:35 Clear 77 25 73 23 89 89 W 13 20 29.83 1010 10 16.0934 0 0
5:55 am 05:55 Clear 77 25 73 23 89 89 W 8 13 29.8 1009 10 16.0934 0 0
6:15 am 06:15 Sunny 77 25 72 22 83 83 W 3 6 29.8 1009 10 16.0934 0 0
6:35 am 06:35 Sunny 77 25 72 22 83 83 W 5 7 29.8 1009 10 16.0934 0 0
6:55 am 06:55 Sunny 77 25 72 22 83 83 W 6 9 29.83 1010 10 16.0934 0 0
7:15 am 07:15 Sunny 79 26 72 22 79 79 WNW 6 9 29.83 1010 10 16.0934 0 0
7:35 am 07:35 Sunny 79 26 72 22 79 79 W 6 9 29.83 1010 10 16.0934 0 0
7:55 am 07:55 Sunny 81 27 72 22 74 74 WNW 8 13 29.83 1010 10 16.0934 0 0
8:15 am 08:15 Sunny 82 28 72 22 70 70 NW 7 11 29.83 1010 10 16.0934 0 0
8:35 am 08:35 Sunny 82 28 72 22 70 70 WNW 14 22 29.83 1010 10 16.0934 0 0
8:55 am 08:55 Sunny 82 28 72 22 70 70 WNW 14 22 29.83 1010 10 16.0934 0 0
9:15 am 09:15 Sunny 84 29 72 22 66 66 W 12 19 29.8 1009 10 16.0934 0 0
9:35 am 09:35 Sunny 86 30 73 23 66 66 NW 9 15 29.8 1009 10 16.0934 0 0
9:55 am 09:55 Sunny 84 29 72 22 66 66 NW 13 20 29.8 1009 10 16.0934 0 0
10:15 am 10:15 Sunny 86 30 73 23 66 66 NW 14 22 29.8 1009 10 16.0934 0 0
10:35 am 10:35 Sunny 86 30 73 23 66 66 NW 14 22 29.8 1009 10 16.0934 0 0
10:55 am 10:55 Sunny 86 30 73 23 66 66 NW 10 17 29.8 1009 10 16.0934 0 0
11:15 am 11:15 Sunny 84 29 73 23 70 70 NW 16 26 29.8 1009 10 16.0934 0 0
11:35 am 11:35 Partly Cloudy 88 31 73 23 62 62 NW 12 19 29.8 1009 10 16.0934 0 0
11:55 am 11:55 Partly Cloudy 88 31 73 23 62 62 WNW 14 22 29.8 1009 10 16.0934 0 0
12:15 pm 12:15 Sunny 88 31 73 23 62 62 NW 12 19 29.8 1009 10 16.0934 0 0
12:35 pm 12:35 Sunny 88 31 75 24 66 66 W 6 9 29.77 1008 10 16.0934 0 0
12:55 pm 12:55 Sunny 90 32 73 23 59 59 WNW 13 20 29.77 1008 10 16.0934 0 0
1:15 pm 13:15 Partly Cloudy 90 32 73 23 59 59 WNW 16 26 29.77 1008 10 16.0934 0 0
1:35 pm 13:35 Partly Cloudy 90 32 73 23 59 59 W 13 20 29.77 1008 10 16.0934 0 0
1:55 pm 13:55 Partly Cloudy 90 32 73 23 59 59 NW 15 24 29.77 1008 10 16.0934 0 0
2:15 pm 14:15 Mostly Cloudy 90 32 75 24 63 63 W 13 20 29.77 1008 10 16.0934 0 0
2:35 pm 14:35 Mostly Cloudy 90 32 73 23 59 59 NNW 5 7 29.77 1008 10 16.0934 0 0
2:55 pm 14:55 Partly Cloudy 90 32 77 25 67 67 NW 6 9 29.77 1008 10 16.0934 0 0
3:15 pm 15:15 Sunny 91 33 73 23 56 56 Calm 29.77 1008 10 16.0934 0 0
3:35 pm 15:35 Partly Cloudy 91 33 75 24 59 59 Calm 29.74 1007 10 16.0934 0 0
3:55 pm 15:55 Partly Cloudy 91 33 77 25 63 63 WSW 5 7 29.74 1007 10 16.0934 0 0
4:15 pm 16:15 Partly Cloudy 91 33 77 25 63 63 W 5 7 29.74 1007 10 16.0934 0 0
4:35 pm 16:35 Partly Cloudy 91 33 75 24 59 59 Calm 29.74 1007 10 16.0934 0 0
4:55 pm 16:55 Partly Cloudy 91 33 77 25 63 63 W 5 7 29.74 1007 10 16.0934 0 0
5:15 pm 17:15 Sunny 91 33 77 25 63 63 W 5 7 29.71 1006 10 16.0934 0 0
5:35 pm 17:35 Sunny 91 33 77 25 63 63 W 5 7 29.71 1006 10 16.0934 0 0
5:55 pm 17:55 Sunny 91 33 77 25 63 63 W 6 9 29.71 1006 10 16.0934 0 0
6:15 pm 18:15 Sunny 91 33 75 24 59 59 W 5 7 29.71 1006 10 16.0934 0 0
6:35 pm 18:35 Sunny 91 33 77 25 63 63 W 3 6 29.71 1006 10 16.0934 0 0
6:55 pm 18:55 Sunny 90 32 77 25 67 67 Calm 29.71 1006 10 16.0934 0 0
7:15 pm 19:15 Sunny 90 32 77 25 67 67 Calm 29.71 1006 10 16.0934 0 0
7:35 pm 19:35 Sunny 88 31 77 25 70 70 W 3 6 29.71 1006 10 16.0934 0 0
7:55 pm 19:55 Mostly Cloudy 88 31 77 25 70 70 Calm 29.71 1006 10 16.0934 0 0
8:15 pm 20:15 Partly Cloudy 86 30 77 25 75 75 Calm 29.71 1006 10 16.0934 0 0
8:35 pm 20:35 Clear 84 29 77 25 79 79 Calm 29.71 1006 10 16.0934 0 0
8:55 pm 20:55 Clear 84 29 77 25 79 79 Calm 29.71 1006 10 16.0934 0 0
9:15 pm 21:15 Partly Cloudy 82 28 79 26 89 89 Calm 29.74 1007 10 16.0934 0 0
9:35 pm 21:35 Mostly Cloudy 82 28 79 26 89 89 SSW 3 6 29.74 1007 10 16.0934 0 0
9:55 pm 21:55 Partly Cloudy 81 27 79 26 94 94 Calm 29.77 1008 10 16.0934 0 0
10:15 pm 22:15 Mostly Cloudy 81 27 79 26 94 94 WSW 3 6 29.77 1008 10 16.0934 0 0
10:35 pm 22:35 Mostly Cloudy 81 27 79 26 94 94 Calm 29.77 1008 10 16.0934 0 0
10:55 pm 22:55 Clear 81 27 79 26 94 94 WSW 6 9 29.74 1007 10 16.0934 0 0
11:15 pm 23:15 Clear 79 26 77 25 94 94 W 5 7 29.74 1007 10 16.0934 0 0
11:35 pm 23:35 Clear 79 26 77 25 94 94 Calm 29.74 1007 10 16.0934 0 0
11:55 pm 23:55 Clear 79 26 77 25 94 94 W 3 6 29.74 1007 10 16.0934 0 0

Powered by AerisWeather